This is the latest recevied weather packets stored in our database for station/object KC0QBU-13. If no packets are shown the sender has not sent any weather packets the latest 10 day(s).
| Time | Temp. | Humidity | Pressure | Rain* | Wind** | Luminosity | Snow |
|---|---|---|---|---|---|---|---|
| 1777967093 | 10.56° C | 81% | 1011.1 hPa | 3.56 mm | - | - | - |
| 1777966763 | 11.11° C | 79% | 1011.6 hPa | 2.54 mm | - | - | - |
| 1777966433 | 11.11° C | 79% | 1011.3 hPa | 1.78 mm | - | - | - |
| 1777966133 | 11.11° C | 77% | 1011.5 hPa | 1.78 mm | - | - | - |
| 1777965803 | 11.67° C | 73% | 1011.7 hPa | 1.27 mm | - | - | - |
| 1777965473 | 12.22° C | 69% | 1010.7 hPa | 1.27 mm | - | - | - |
| 1777965173 | 12.22° C | 70% | 1010.2 hPa | 1.27 mm | - | - | - |
| 1777964873 | 12.78° C | 70% | 1010.1 hPa | 1.27 mm | - | - | - |
| 1777964573 | 12.78° C | 68% | 1009.2 hPa | 1.27 mm | - | - | - |
| 1777964243 | 12.78° C | 70% | 1009.4 hPa | 1.78 mm | - | - | - |
| 1777963943 | 12.78° C | 74% | 1009.2 hPa | 1.78 mm | - | - | - |
| 1777963613 | 13.33° C | 78% | 1009.9 hPa | 2.29 mm | - | - | - |
| 1777963283 | 13.89° C | 78% | 1009.7 hPa | 2.29 mm | - | - | - |
| 1777962983 | 13.89° C | 79% | 1008.7 hPa | 2.29 mm | - | - | - |
| 1777962653 | 13.89° C | 80% | 1008.3 hPa | 1.78 mm | - | - | - |
| 1777962323 | 14.44° C | 83% | 1008.6 hPa | 1.78 mm | - | - | - |
| 1777962023 | 14.44° C | 84% | 1008.7 hPa | 1.78 mm | - | - | - |
| 1777961723 | 14.44° C | 83% | 1008.9 hPa | 1.78 mm | - | - | - |
| 1777961423 | 15° C | 81% | 1008.5 hPa | 1.27 mm | - | - | - |
| 1777961123 | 15° C | 78% | 1008 hPa | 1.27 mm | - | - | - |
| 1777960793 | 15.56° C | 74% | 1007.8 hPa | 0.76 mm | - | - | - |
| 1777960493 | 16.11° C | 69% | 1007.4 hPa | 0.25 mm | - | - | - |
| 1777960193 | 16.67° C | 65% | 1007.3 hPa | 0 mm | - | - | - |
| 1777959893 | 17.22° C | 61% | 1007.2 hPa | 0 mm | - | - | - |
| 1777959563 | 17.22° C | 57% | 1007.3 hPa | 0 mm | - | - | - |
* Rain latest hour (hover to see other rain measurements)
** Current wind speed in m/s (hover to see current wind gust speed)